Weather History for Mt. Pocono, PA

Change the Weather History Date:

Thursday, March 14, 2013

  Actual Average Record
Temperature  
Mean Temperature 26 °F 33 °F  
Max Temperature 32 °F 41 °F 76 °F (1990)
Min Temperature 20 °F 24 °F 1 °F (1914)
Degree Days  
Heating Degree Days 39 32  
Month to date heating degree days 461 480  
Since 1 July heating degree days 5289 5603  
Cooling Degree Days 0 0  
Month to date cooling degree days 0 0  
Year to date cooling degree days 0 0  
Moisture  
Dew Point 10 °F    
Average Humidity 52    
Maximum Humidity 73    
Minimum Humidity 31    
Precipitation  
Precipitation 0.01 in 0.12 in 2.04 in (1993)
Month to date precipitation 2.42 1.24  
Year to date precipitation 5.95 6.50  
Sea Level Pressure  
Sea Level Pressure 29.88 in    
Wind  
Wind Speed 18 mph (NW)    
Max Wind Speed 30 mph    
Max Gust Speed 44 mph    
Visibility 8 miles    
Events Snow    
T = Trace of Precipitation, MM = Missing Value Source: NWS Daily Summary

Daily Weather History Graph

Daily Weather History Graph

Search for Another Location

Airport:

Trip Planner

Search our weather history database for the weather conditions in past years. The results will help you decide how hot, cold, wet, or windy it might be!

Date:

Astronomy

Mar. 14, 2013 Rise Set
Actual Time 7:14 AM EDT 7:07 PM EDT
Civil Twilight 6:47 AM EDT 7:34 PM EDT
Nautical Twilight 6:15 AM EDT 8:06 PM EDT
Astronomical Twilight 5:42 AM EDT 8:39 PM EDT
Moon 8:25 AM EDT (3/14) 10:23 PM EDT (3/14)
Length of Visible Light 12h 47m
Length of Day
11h 52m
Waxing Crescent, 9% of the Moon is Illuminated
Mar 14
Waxing Crescent
Mar 19
First Quarter
Mar 27
Full
Apr 3
Last Quarter
Apr 10
New

Hourly Weather History & Observations

Time (EDT) Temp. Windchill Dew Point Humidity Pressure Visibility Wind Dir Wind Speed Gust Speed Precip Events Conditions
12:53 AM 27.0 °F 13.2 °F 12.9 °F 56% 29.87 in 10.0 mi NW 20.7 mph 29.9 mph 0.00 in   Overcast
1:53 AM 24.1 °F 9.8 °F 15.1 °F 69% 29.88 in 10.0 mi WNW 19.6 mph 26.5 mph 0.00 in   Mostly Cloudy
2:53 AM 24.1 °F 10.1 °F 9.0 °F 53% 29.88 in 10.0 mi WNW 18.4 mph 31.1 mph N/A   Partly Cloudy
3:53 AM 23.0 °F 10.6 °F 10.9 °F 60% 29.87 in 10.0 mi WNW 13.8 mph 21.9 mph N/A   Mostly Cloudy
4:53 AM 21.9 °F 9.2 °F 15.1 °F 75% 29.87 in 4.0 mi WNW 13.8 mph 27.6 mph 0.00 in Snow Light Snow
5:53 AM 21.9 °F 8.2 °F 15.1 °F 75% 29.88 in 5.0 mi NW 16.1 mph 27.6 mph 0.00 in Snow Light Snow
6:53 AM 19.9 °F 6.2 °F 12.9 °F 74% 29.89 in 4.0 mi NW 15.0 mph 23.0 mph 0.00 in Snow Light Snow
7:27 AM 19.4 °F 6.6 °F 14.0 °F 80% 29.83 in 2.0 mi WNW 12.7 mph 27.6 mph 0.00 in Snow Light Snow
7:34 AM 19.4 °F 6.0 °F 14.0 °F 80% 29.84 in 1.5 mi WNW 13.8 mph 24.2 mph 0.00 in Snow Light Snow
7:43 AM 19.4 °F 5.5 °F 12.2 °F 74% 29.84 in 2.5 mi WNW 15.0 mph 29.9 mph 0.00 in Snow Light Snow
7:50 AM 19.4 °F 4.5 °F 10.4 °F 68% 29.84 in 5.0 mi WNW 17.3 mph 28.8 mph 0.00 in Snow Light Snow
7:53 AM 19.9 °F 2.8 °F 10.0 °F 65% 29.91 in 5.0 mi WNW 24.2 mph 35.7 mph 0.00 in Snow Light Snow
8:53 AM 21.0 °F 5.7 °F 10.0 °F 63% 29.92 in 10.0 mi NW 19.6 mph 32.2 mph 0.00 in   Overcast
9:14 AM 21.2 °F 6.0 °F 10.4 °F 63% 29.85 in 7.0 mi WNW 19.6 mph 31.1 mph N/A   Overcast
9:53 AM 21.0 °F 6.6 °F 10.9 °F 65% 29.93 in 3.0 mi NW 17.3 mph 35.7 mph 0.00 in Snow Light Snow
10:18 AM 21.2 °F 6.0 °F 10.4 °F 63% 29.85 in 6.0 mi WNW 19.6 mph 32.2 mph 0.00 in Snow Light Snow
10:42 AM 21.2 °F 7.8 °F 10.4 °F 63% 29.85 in 6.0 mi NW 15.0 mph 32.2 mph 0.00 in Snow Light Snow
10:53 AM 21.9 °F 9.2 °F 10.9 °F 63% 29.93 in 8.0 mi NW 13.8 mph 29.9 mph 0.00 in Snow Light Snow
11:00 AM 21.2 °F 4.9 °F 10.4 °F 63% 29.85 in 7.0 mi WNW 23.0 mph 36.8 mph 0.00 in Snow Light Snow
11:22 AM 23.0 °F 8.0 °F 10.4 °F 59% 29.85 in 10.0 mi WNW 20.7 mph 36.8 mph 0.00 in   Overcast
11:53 AM 24.1 °F 12.0 °F 10.0 °F 55% 29.92 in 10.0 mi NW 13.8 mph 33.4 mph 0.00 in   Overcast
1:53 PM 30.0 °F 18.3 °F 8.1 °F 40% 29.88 in 10.0 mi WNW 17.3 mph 36.8 mph N/A   Partly Cloudy
2:53 PM 30.9 °F 17.8 °F 7.0 °F 37% 29.86 in 10.0 mi NW 23.0 mph 34.5 mph N/A   Scattered Clouds
3:53 PM 30.9 °F 16.7 °F 7.0 °F 37% 29.86 in 10.0 mi WNW 27.6 mph 43.7 mph N/A   Mostly Cloudy
4:53 PM 32.0 °F 20.1 °F 7.0 °F 35% 29.86 in 10.0 mi NW 19.6 mph 31.1 mph N/A   Partly Cloudy
5:53 PM 30.9 °F 18.4 °F 3.9 °F 32% 29.87 in 10.0 mi NW 20.7 mph 33.4 mph N/A   Clear
6:53 PM 28.9 °F 16.5 °F 3.9 °F 35% 29.90 in 10.0 mi NW 18.4 mph 29.9 mph N/A   Clear
7:53 PM 28.0 °F 16.5 °F 6.1 °F 39% 29.92 in 10.0 mi NW 15.0 mph 28.8 mph N/A   Clear
8:53 PM 27.0 °F 15.2 °F 5.0 °F 39% 29.93 in 10.0 mi NW 15.0 mph 29.9 mph N/A   Clear
9:53 PM 26.1 °F 14.5 °F 8.1 °F 47% 29.94 in 10.0 mi WNW 13.8 mph 28.8 mph N/A   Clear
10:53 PM 25.0 °F 12.6 °F 9.0 °F 51% 29.95 in 10.0 mi WNW 15.0 mph 25.3 mph N/A   Clear
11:53 PM 24.1 °F 11.0 °F 10.0 °F 55% 29.96 in 10.0 mi NW 16.1 mph 28.8 mph N/A   Clear